JUPITER 3 (ECHOSTAR 24)

Last updated on Thu Aug 13 2026 00:03:03 GMT+0000 (Coordinated Universal Time)

1 57479U 23108A 26224.37321098 -.00000167 00000+0 00000+0 0 9998 2 57479 0.0144 85.2323 0001104 50.1565 224.6006 1.00271122 11204
UTC large
Height (km)
Speed (km/s)
/
Latitude / Longitude
Inclination (degrees)
Orbital Period (minutes)
Azimuth
Elevation
Range (km)
Doppler Factor

Next 0 passes for location: London (51.5072 / 0.1276)

No passes found over London.
JUPITER 3 (ECHOSTAR 24)